[[{"header":{"parameterUnit":"m.s-1","parameterCategory":1,"la1":30.2991,"la2":30.254,"lo1":-89.0895,"lo2":-89.0444,"dy":0.0017,"dx":0.0017,"nx":28,"ny":28,"refTime":"2023-09-10T09:00:00:Z","depth":0,"parameterNumber":2,"parameterNumberName":"U-component_of_WINDS"},"data":[0,0,0,0,0,0,0,0,0,0,0,0,0,0,0,0,0,0,0,0,0,0,0,0,0,0,0,0,0,0,0,0,0,0,0,0,0,0,0,0,0,0,0,0,0,0,0,0,0,0,0,0,0,0,0,0,0,0,-1.2938,-1.2938,0,-1.2974,-1.2975,-1.2975,-1.2905,-1.2903,-1.29,-1.2898,-1.2939,-1.2942,-1.2945,0,0,0,0,0,0,0,0,0,0,0,0,0,-1.2809,-1.2812,-1.2938,-1.2938,-1.2939,-1.2974,-1.2975,-1.2975,-1.2905,-1.2902,-1.29,-1.2897,-1.2938,-1.2942,-1.2946,0,0,0,0,0,0,0,0,0,0,0,0,0,-1.2858,-1.2813,-1.2938,-1.2908,-1.2906,-1.2974,-1.2975,-1.2975,-1.2906,-1.2902,-1.2899,-1.2896,-1.2936,-1.2941,-1.2946,-1.3046,0,0,-1.2961,-1.2963,0,0,0,0,0,0,0,0,-1.2855,-1.2862,-1.2912,-1.291,-1.2908,-1.2931,-1.2944,-1.2999,-1.2907,-1.2906,-1.2898,-1.2894,-1.2939,-1.2944,-1.2958,-1.3048,-1.305,-1.2961,-1.2964,-1.2966,-1.2968,0,0,0,0,0,0,0,-1.2852,-1.286,-1.2952,-1.2913,-1.291,-1.2893,-1.2896,-1.2954,-1.2942,-1.2906,-1.2901,-1.2906,-1.2938,-1.2954,-1.2959,-1.305,-1.2961,-1.2966,-1.2969,-1.297,-1.3221,-1.3225,0,0,0,0,0,0,-1.2852,-1.2858,-1.2951,-1.2953,-1.2872,-1.2899,-1.2902,-1.2927,-1.2941,-1.294,-1.2909,-1.2902,-1.2947,-1.2953,-1.296,-1.3076,-1.2966,-1.2971,-1.2974,-1.3217,-1.3222,-1.3226,0,0,0,0,0,0,-1.2849,-1.2861,-1.295,-1.2904,-1.2914,-1.2904,-1.2934,-1.293,-1.2946,-1.2943,-1.2941,-1.2928,-1.2945,-1.2953,-1.3024,-1.3077,-1.2973,-1.2978,-1.3213,-1.3219,-1.3224,-1.3311,0,0,0,0,0,0,-1.2846,-1.286,-1.2898,-1.2906,-1.2917,-1.3013,-1.2937,-1.2933,-1.2954,-1.2946,-1.296,-1.2959,-1.2943,-1.3017,-1.3029,-1.3082,-1.2981,-1.3208,-1.3215,-1.3222,-1.3304,-1.3319,-1.3332,0,0,0,0,0,-1.2842,-1.2922,-1.29,-1.2912,-1.2964,-1.3016,-1.3023,-1.3001,-1.2959,-1.2997,-1.2994,-1.2959,-1.3069,-1.3025,-1.3038,-1.3093,-1.3205,-1.3213,-1.3222,-1.3297,-1.3316,-1.3332,0,0,0,0,0,0,-1.2923,-1.2923,-1.2898,-1.2984,-1.3001,-1.3004,-1.3052,-1.3022,-1.3052,-1.3044,-1.3016,-1.302,-1.3096,-1.3102,-1.3053,-1.3189,-1.313,-1.3141,-1.3183,-1.3201,-1.3215,-1.3212,-1.2985,0,0,0,0,0,-1.2951,-1.2993,-1.2991,-1.3066,-1.3076,-1.3062,-1.3085,-1.3066,-1.3082,-1.309,-1.3093,-1.3111,-1.3149,-1.3175,-1.3211,-1.3304,-1.3305,-1.3347,-1.3362,-1.3374,-1.3384,-1.3432,-1.345,-1.3253,-1.3253,-1.3253,0,0,-1.3009,-1.3014,-1.3043,-1.3083,-1.3093,-1.3138,-1.3069,-1.3119,-1.3152,-1.3098,-1.3164,-1.3167,-1.3185,-1.3267,-1.3304,-1.3274,-1.3438,-1.3384,-1.3394,-1.3398,-1.3442,-1.3461,-1.3477,-1.3259,-1.3258,-1.3257,0,0,-1.3138,-1.3146,-1.3209,-1.322,-1.3236,-1.3226,-1.3242,-1.3249,-1.3249,-1.3315,-1.3274,-1.3313,-1.338,-1.3394,-1.341,-1.3541,-1.3509,-1.3553,-1.3629,-1.3676,-1.3691,-1.3705,-1.3751,-1.3767,-1.3563,-1.3564,-1.3564,0,-1.3209,-1.3273,-1.3246,-1.3298,-1.3316,-1.3267,-1.333,-1.3343,-1.3371,-1.3385,-1.3351,-1.3432,-1.3441,-1.3525,-1.3556,-1.3571,-1.3587,-1.3552,-1.3691,-1.3704,-1.3717,-1.376,-1.3777,-1.3569,-1.3568,-1.3568,-1.3567,0,-1.3358,-1.3404,-1.3453,-1.3478,-1.3502,-1.356,-1.3542,-1.3569,-1.3548,-1.3541,-1.3609,-1.3617,-1.3652,-1.3671,-1.3652,-1.3752,-1.3732,-1.3695,-1.3635,-1.3741,-1.3781,-1.3798,-1.3576,-1.3574,-1.3573,-1.3572,0,0,-1.3542,-1.3549,-1.3568,-1.3578,-1.359,-1.3625,-1.368,-1.3713,-1.3736,-1.3757,-1.3802,-1.3858,-1.3823,-1.3841,-1.3823,-1.3864,-1.3965,-1.3821,-1.3821,-1.3847,-1.4075,-1.4102,-1.4122,-1.3944,-1.3947,-1.3949,-1.4073,0,-1.3669,-1.3762,-1.3738,-1.3831,-1.3871,-1.3824,-1.3871,-1.3885,-1.388,-1.3914,-1.3908,-1.3948,-1.3899,-1.391,-1.3948,-1.3945,-1.4011,-1.3936,-1.3986,-1.3988,-1.3983,-1.4143,-1.4173,-1.429,-1.4088,-1.4091,-1.4093,0,-1.383,-1.3853,-1.395,-1.3954,-1.397,-1.4013,-1.404,-1.4073,-1.4087,-1.408,-1.4099,-1.4071,-1.4125,-1.4064,-1.4138,-1.4087,-1.4106,-1.4107,-1.4111,-1.4115,-1.4047,-1.4151,-1.4326,-1.4344,-1.4118,-1.4116,-1.4114,0,-1.3953,-1.4009,-1.4073,-1.4083,-1.409,-1.4121,-1.4125,-1.4135,-1.4155,-1.4179,-1.4192,-1.4222,-1.4239,-1.4263,-1.4244,-1.4202,-1.4321,-1.4258,-1.4317,-1.4317,-1.4344,-1.4343,-1.4525,-1.4357,-1.4357,-1.4356,-1.4356,0,-1.4097,-1.4158,-1.4128,-1.4168,-1.4234,-1.4206,-1.4272,-1.4271,-1.428,-1.4318,-1.4279,-1.4317,-1.4289,-1.4324,-1.431,-1.4372,-1.4381,-1.4377,-1.4372,-1.438,-1.438,-1.4392,-1.4384,-1.4361,-1.436,-1.4359,-1.4358,0,-1.4246,-1.4229,-1.4296,-1.4295,-1.4296,-1.4345,-1.4344,-1.4381,-1.4372,-1.4421,-1.4431,-1.4418,-1.4457,-1.444,-1.4481,-1.4471,-1.4551,-1.4536,-1.4546,-1.4542,-1.4601,-1.4596,-1.4797,-1.4821,-1.4638,-1.464,-1.4642,0,-1.4339,-1.4384,-1.4388,-1.441,-1.4416,-1.4453,-1.4473,-1.4446,-1.4468,-1.4485,-1.452,-1.4555,-1.4581,-1.4645,-1.4639,-1.467,-1.4655,-1.4724,-1.466,-1.4666,-1.4656,-1.4653,-1.4657,-1.4737,-1.4739,-1.4741,-1.4742,0,-1.4506,-1.4494,-1.4524,-1.455,-1.4574,-1.4594,-1.4611,-1.4631,-1.4605,-1.4632,-1.467,-1.469,-1.4731,-1.4766,-1.4792,-1.4797,-1.4765,-1.4762,-1.4777,-1.4785,-1.4789,-1.4787,-1.4581,-1.4758,-1.4756,-1.4755,-1.4754,-1.4753,-1.463,-1.4667,-1.4674,-1.4708,-1.4717,-1.4732,-1.4766,-1.476,-1.4791,-1.4821,-1.4803,-1.4847,-1.4857,-1.489,-1.4898,-1.4932,-1.4906,-1.4928,-1.4933,-1.4939,-1.4946,-1.4783,-1.4937,-1.4937,-1.4936,-1.4936,-1.4936,0,-1.4794,-1.4795,-1.4827,-1.4849,-1.4876,-1.4841,-1.4857,-1.4881,-1.492,-1.4932,-1.4958,-1.5001,-1.5034,-1.5029,-1.5059,-1.5087,-1.5074,-1.5096,-1.5094,-1.5095,-1.4969,-1.4953,-1.5107,-1.5107,-1.5107,-1.5107,-1.5107,-1.5107,-1.4883,-1.4943,-1.4932,-1.4996,-1.4997,-1.5039,-1.5051,-1.5065,-1.5073,-1.5122,-1.5149,-1.5145,-1.515,-1.5179,-1.5208,-1.5205,-1.5218,-1.5246,-1.5239,-1.5121,-1.5104,-1.5088,-1.5073,-1.5249,-1.525,-1.5362,-1.5363,-1.5364]},{"header":{"parameterUnit":"m.s-1","parameterCategory":1,"la1":30.2991,"la2":30.254,"lo1":-89.0895,"lo2":-89.0444,"dy":0.0017,"dx":0.0017,"nx":28,"ny":28,"refTime":"2023-09-10T09:00:00:Z","depth":0,"parameterNumber":3,"parameterNumberName":"V-component_of_WINDS"},"data":[0,0,0,0,0,0,0,0,0,0,0,0,0,0,0,0,0,0,0,0,0,0,0,0,0,0,0,0,0,0,0,0,0,0,0,0,0,0,0,0,0,0,0,0,0,0,0,0,0,0,0,0,0,0,0,0,0,0,-3.153,-3.1533,0,-3.1827,-3.183,-3.1834,-3.1926,-3.1925,-3.1924,-3.1922,-3.2217,-3.2226,-3.2235,0,0,0,0,0,0,0,0,0,0,0,0,0,-3.1035,-3.1044,-3.153,-3.1534,-3.1538,-3.1826,-3.183,-3.1834,-3.1927,-3.1925,-3.1923,-3.1922,-3.2214,-3.2225,-3.2235,0,0,0,0,0,0,0,0,0,0,0,0,0,-3.1282,-3.1046,-3.1529,-3.1619,-3.163,-3.1825,-3.183,-3.1835,-3.1927,-3.1925,-3.1923,-3.1921,-3.221,-3.2223,-3.2237,-3.2363,0,0,-3.2279,-3.2285,0,0,0,0,0,0,0,0,-3.1268,-3.13,-3.1602,-3.1613,-3.1625,-3.1838,-3.1764,-3.2012,-3.1928,-3.1814,-3.1922,-3.192,-3.2092,-3.2115,-3.2175,-3.2377,-3.2389,-3.228,-3.2288,-3.2294,-3.2298,0,0,0,0,0,0,0,-3.1251,-3.1288,-3.1647,-3.1606,-3.162,-3.1641,-3.1674,-3.1811,-3.196,-3.1824,-3.1831,-3.1865,-3.2098,-3.2161,-3.2182,-3.2394,-3.228,-3.2292,-3.23,-3.2306,-3.2713,-3.2715,0,0,0,0,0,0,-3.122,-3.1273,-3.1638,-3.1656,-3.1438,-3.1651,-3.1688,-3.1771,-3.1959,-3.1986,-3.1867,-3.1869,-3.2139,-3.2166,-3.2193,-3.2353,-3.2294,-3.2307,-3.2315,-3.271,-3.2713,-3.2716,0,0,0,0,0,0,-3.1209,-3.1252,-3.1626,-3.1467,-3.1516,-3.1662,-3.1755,-3.1778,-3.1843,-3.1992,-3.2018,-3.1905,-3.2139,-3.2174,-3.2321,-3.2364,-3.2313,-3.2326,-3.2707,-3.2711,-3.2715,-3.2672,0,0,0,0,0,0,-3.1194,-3.1247,-3.1298,-3.1468,-3.1524,-3.1751,-3.1758,-3.1786,-3.1867,-3.1872,-3.2035,-3.206,-3.214,-3.23,-3.2334,-3.2382,-3.2336,-3.2704,-3.2709,-3.2713,-3.267,-3.2674,-3.2678,0,0,0,0,0,-3.1176,-3.1273,-3.1301,-3.1344,-3.1592,-3.1753,-3.1785,-3.1878,-3.187,-3.1922,-3.2018,-3.2055,-3.2354,-3.2314,-3.2353,-3.2406,-3.2701,-3.2707,-3.2713,-3.2669,-3.2674,-3.2677,0,0,0,0,0,0,-3.1101,-3.1296,-3.1329,-3.1484,-3.1602,-3.1768,-3.1836,-3.188,-3.2,-3.1999,-3.2106,-3.2142,-3.228,-3.2358,-3.231,-3.2537,-3.2529,-3.2543,-3.2482,-3.2487,-3.2491,-3.2469,-3.2348,0,0,0,0,0,-3.1104,-3.1221,-3.1384,-3.1504,-3.1562,-3.1689,-3.1762,-3.1824,-3.1949,-3.1998,-3.2105,-3.2222,-3.2342,-3.2419,-3.2538,-3.2682,-3.2718,-3.2738,-3.2741,-3.2744,-3.2754,-3.2835,-3.2845,-3.2735,-3.2735,-3.2735,0,0,-3.1108,-3.1229,-3.1296,-3.1492,-3.1591,-3.1707,-3.173,-3.1852,-3.1939,-3.2015,-3.2161,-3.2243,-3.2381,-3.2527,-3.2596,-3.2596,-3.2793,-3.2751,-3.2752,-3.2761,-3.2842,-3.2852,-3.2861,-3.2739,-3.2738,-3.2738,0,0,-3.1175,-3.1279,-3.1392,-3.149,-3.164,-3.1724,-3.175,-3.1912,-3.197,-3.2119,-3.2179,-3.2282,-3.2487,-3.2583,-3.2659,-3.2763,-3.2801,-3.2798,-3.2816,-3.2894,-3.2903,-3.2911,-3.2947,-3.2959,-3.2808,-3.2808,-3.2808,0,-3.1161,-3.1342,-3.1442,-3.1563,-3.1647,-3.1725,-3.1837,-3.1927,-3.2106,-3.2161,-3.2159,-3.2419,-3.2517,-3.2686,-3.2712,-3.277,-3.2802,-3.278,-3.2894,-3.2903,-3.2912,-3.2948,-3.2961,-3.2807,-3.2807,-3.2807,-3.2807,0,-3.1316,-3.1441,-3.1512,-3.1688,-3.178,-3.1895,-3.201,-3.2091,-3.2144,-3.2227,-3.2376,-3.2497,-3.2642,-3.2687,-3.2739,-3.2863,-3.2858,-3.2873,-3.2867,-3.292,-3.2955,-3.2969,-3.2805,-3.2805,-3.2806,-3.2806,0,0,-3.1344,-3.1575,-3.1599,-3.1679,-3.1851,-3.1947,-3.2065,-3.221,-3.2277,-3.2397,-3.2498,-3.267,-3.2686,-3.2771,-3.2835,-3.2903,-3.2977,-3.291,-3.2915,-3.2918,-3.3119,-3.3106,-3.312,-3.3003,-3.3006,-3.3009,-3.3107,0,-3.1432,-3.1651,-3.1745,-3.1918,-3.2033,-3.2109,-3.2212,-3.2326,-3.2407,-3.2514,-3.2602,-3.2723,-3.2735,-3.2787,-3.2858,-3.2952,-3.3018,-3.2947,-3.3095,-3.3099,-3.3057,-3.3139,-3.3126,-3.3213,-3.3122,-3.3124,-3.3126,0,-3.1565,-3.169,-3.1876,-3.2034,-3.2086,-3.2177,-3.2317,-3.242,-3.255,-3.2604,-3.27,-3.276,-3.2884,-3.287,-3.3041,-3.299,-3.3056,-3.3112,-3.3117,-3.3134,-3.3115,-3.3156,-3.3243,-3.3255,-3.3149,-3.3147,-3.3145,0,-3.1565,-3.178,-3.192,-3.1986,-3.2174,-3.2236,-3.2316,-3.2445,-3.2526,-3.2647,-3.2701,-3.2833,-3.2906,-3.3006,-3.31,-3.3081,-3.3261,-3.3255,-3.3307,-3.3304,-3.3341,-3.3337,-3.3438,-3.3384,-3.3384,-3.3384,-3.3384,0,-3.1654,-3.1764,-3.1922,-3.2008,-3.2133,-3.2239,-3.2359,-3.2444,-3.2558,-3.2659,-3.2732,-3.2824,-3.2943,-3.305,-3.3124,-3.3253,-3.3285,-3.333,-3.3348,-3.3324,-3.3318,-3.3368,-3.3363,-3.3387,-3.3387,-3.3386,-3.3385,0,-3.1675,-3.1786,-3.1942,-3.2108,-3.2153,-3.2237,-3.2378,-3.2462,-3.2547,-3.2674,-3.2709,-3.2841,-3.2971,-3.3075,-3.3243,-3.3292,-3.3428,-3.3449,-3.3385,-3.3394,-3.344,-3.3434,-3.3576,-3.3599,-3.353,-3.3531,-3.3531,0,-3.1724,-3.1812,-3.1988,-3.2063,-3.2143,-3.2262,-3.2346,-3.2453,-3.2537,-3.2693,-3.2757,-3.2893,-3.3007,-3.321,-3.3319,-3.3448,-3.3471,-3.3512,-3.3491,-3.3463,-3.3471,-3.3464,-3.3473,-3.3514,-3.3514,-3.3514,-3.3514,0,-3.1799,-3.185,-3.197,-3.2109,-3.2208,-3.2322,-3.2437,-3.2493,-3.2621,-3.2711,-3.2846,-3.2935,-3.3109,-3.3241,-3.3382,-3.3462,-3.3508,-3.3521,-3.3539,-3.3514,-3.3473,-3.3495,-3.339,-3.3517,-3.3516,-3.3516,-3.3516,-3.3516,-3.1835,-3.1916,-3.2054,-3.2185,-3.2283,-3.239,-3.2477,-3.2574,-3.269,-3.2842,-3.2897,-3.3036,-3.3163,-3.3357,-3.3438,-3.3545,-3.3549,-3.3576,-3.3583,-3.3588,-3.3584,-3.3457,-3.3571,-3.3571,-3.3571,-3.3571,-3.3571,0,-3.1913,-3.2006,-3.2125,-3.2286,-3.2389,-3.2428,-3.2558,-3.264,-3.2762,-3.2878,-3.299,-3.3145,-3.3274,-3.3394,-3.3528,-3.3591,-3.3616,-3.3623,-3.3618,-3.3636,-3.3574,-3.3544,-3.36,-3.36,-3.36,-3.36,-3.36,-3.36,-3.1966,-3.2105,-3.2172,-3.236,-3.2451,-3.259,-3.2661,-3.2758,-3.2852,-3.3023,-3.3132,-3.321,-3.3327,-3.3471,-3.359,-3.3622,-3.3667,-3.3668,-3.3705,-3.3644,-3.364,-3.3636,-3.3609,-3.3678,-3.3678,-3.3758,-3.3759,-3.3759]}]]